Tracking 29892 objects as of 21-Nov-2024
HD Live streaming from Space Station
objects crossing your sky now

SL-8 DEB *

Track SL-8 DEB * now!
10-day predictions


NORAD ID: 18519
Int'l Code: 1984-019D
Perigee: 671.4 km
Apogee: 681.1 km
Inclination: 74.0 °
Period: 98.1 minutes
Semi major axis: 7047 km
RCS: 0.0063 m2 (small)
Launch date: February 21, 1984
Source: Commonwealth of Independent States (former USSR) (CIS)
Launch site: PLESETSK MISSILE AND SPACE COMPLEX (PKMTR)

Note: This is SATELLITE DEBRIS
Your satellite tracking list
Your tracking list is empty




NASA's NSSDC Master Catalog

Two Line Element Set (TLE):
1 18519U 84019D   24325.47275679  .00005332  00000-0  94571-3 0  9991
2 18519  74.0443 335.2978 0006851 158.5012 201.6447 14.67477760976800
Source of the keplerian elements: AFSPC